Home > Weather > Sarh > Past weeks

Flag for Chad Past Weather in Sarh, Chad — Yesterday and Last 2 Weeks

Now
82 °F

Sunny.


Feels Like: 87 °F
Forecast: 77 / 95 °F
Wind: No wind

Location: Sarh Airport

Current Time: May 24, 2016 at 9:02:09 AM

Latest Report: May 24, 2016 at 8:00 AM


Visibility: 10 mi

Pressure: 30.01 "Hg

Humidity: 70%

Dew Point: 72 °F

Location of SarhLocation

Past Weather in Sarh — Graph

°F

Sarh Temperature Yesterday

Maximum temperature yesterday: 99 °F (at 3:00 PM)
Minimum temperature yesterday: 81 °F (at 1:00 AM)
Average temperature yesterday: 91 °F

High & Low Weather Summary for the Past Weeks

 TemperatureHumidityPressure
High100 °F (May 9, 2:00 PM)100% (May 16, 4:00 AM)30.07 "Hg (May 16, 4:00 AM)
Low73 °F (May 11, 7:00 AM)29% (May 10, 5:00 PM)29.74 "Hg (May 16, 11:00 AM)
Average87 °F60%29.91 "Hg
* Reported May 9 8:00 AM — May 24 8:00 AM, Sarh, Weather by CustomWeather, © 2016

Note: Actual official high and low records may vary slightly from our data, if they occured in-between our weather recording intervals... More about our weather records

Advertising

Sarh Weather History for the Previous 24 Hours

Scroll right to see more
 ConditionsComfort  
Time TempWeatherWind HumidityBarometerVisibility
8:00 AM
Tue, May 24
82 °FSunny.No wind70%30.01 "Hg10 mi
7:00 AM81 °FSunny.6 mph74%30.01 "Hg10 mi
6:00 AM79 °FSunny.No wind79%29.98 "Hg10 mi
5:00 AM79 °FPassing clouds.2 mph70%29.98 "HgN/A
4:00 AM81 °FPassing clouds.No wind74%29.98 "HgN/A
1:00 AM82 °FThunderstorms. Passing clouds.12 mph70%29.98 "HgN/A
12:00 AM82 °FPassing clouds.12 mph70%29.98 "HgN/A
9:00 PM
Mon, May 23
90 °FThunderstorms. Passing clouds.14 mph46%29.98 "HgN/A
8:00 PM90 °FThunderstorms. Passing clouds.No wind52%29.92 "HgN/A
7:00 PM91 °FThunderstorms. Passing clouds.No wind56%29.89 "HgN/A
5:00 PM97 °FSunny.5 mph37%29.89 "Hg10 mi
4:00 PM97 °FPassing clouds.No wind42%29.86 "HgN/A
3:00 PM99 °FPassing clouds.6 mph39%29.89 "HgN/A
2:00 PM97 °FPassing clouds.No wind42%29.95 "HgN/A
1:00 PM95 °FPassing clouds.5 mph41%29.95 "HgN/A
12:00 PM95 °FSunny.5 mph41%29.98 "Hg10 mi
11:00 AM91 °FSunny.2 mph49%30.01 "Hg10 mi
10:00 AM90 °FSunny.5 mph55%30.04 "Hg10 mi
9:00 AM90 °FHot.9 mph55%30.04 "HgN/A
Weather by CustomWeather, © 2016

See weather overviewHow to use our weather pages